TimeEST,TemperatureF,Dew PointF,Humidity,Sea Level PressureIn,VisibilityMPH,Wind Direction,Wind SpeedMPH,Gust SpeedMPH,PrecipitationIn,Events,Conditions,WindDirDegrees,DateUTC
12:15 AM,29.5,28.0,94,29.89,1.5,Calm,Calm,-,N/A,Snow,Light Snow,0,2012-12-11 05:15:00
12:34 AM,29.3,28.4,96,29.90,1.8,Calm,Calm,-,N/A,Snow,Light Snow,0,2012-12-11 05:34:00
12:54 AM,29.3,28.2,96,29.90,4.0,Calm,Calm,-,N/A,Snow,Light Snow,0,2012-12-11 05:54:00
1:15 AM,29.3,28.4,96,29.90,2.5,Calm,Calm,-,N/A,Snow,Light Snow,0,2012-12-11 06:15:00
1:34 AM,29.7,28.8,96,29.90,2.5,Calm,Calm,-,N/A,Snow,Light Snow,0,2012-12-11 06:34:00
1:55 AM,29.3,28.4,96,29.90,7.0,Calm,Calm,-,N/A,Snow,Light Snow,0,2012-12-11 06:55:00
2:15 AM,29.1,28.2,96,29.91,2.5,Calm,Calm,-,N/A,Snow,Light Snow,0,2012-12-11 07:15:00
2:34 AM,29.3,28.4,96,29.92,1.2,Calm,Calm,-,N/A,Snow,Light Snow,0,2012-12-11 07:34:00
2:55 AM,31.1,30.2,96,29.92,4.0,Calm,Calm,-,N/A,Snow,Light Snow,0,2012-12-11 07:55:00
3:14 AM,28.9,28.0,96,29.92,1.8,Calm,Calm,-,N/A,Snow,Light Snow,0,2012-12-11 08:14:00
3:34 AM,28.6,27.9,97,29.92,7.0,Calm,Calm,-,N/A,Snow,Light Snow,0,2012-12-11 08:34:00
3:55 AM,28.4,27.5,96,29.92,1.0,Calm,Calm,-,N/A,Snow,Light Snow,0,2012-12-11 08:55:00
4:14 AM,27.0,26.2,97,29.93,1.5,Calm,Calm,-,N/A,,Mostly Cloudy,0,2012-12-11 09:14:00
4:35 AM,26.6,26.1,98,29.93,7.0,Calm,Calm,-,N/A,,Mostly Cloudy,0,2012-12-11 09:35:00
4:54 AM,28.0,27.5,98,29.93,10.0,Calm,Calm,-,N/A,Snow,Light Snow,0,2012-12-11 09:54:00
5:15 AM,28.4,28.0,99,29.93,7.0,Calm,Calm,-,N/A,Snow,Light Snow,0,2012-12-11 10:15:00
5:34 AM,28.8,28.0,97,29.93,2.5,Calm,Calm,-,N/A,Snow,Light Snow,0,2012-12-11 10:34:00
5:55 AM,28.9,28.0,96,29.94,10.0,Calm,Calm,-,N/A,Snow,Light Snow,0,2012-12-11 10:55:00
6:15 AM,28.9,28.0,96,29.94,5.0,Calm,Calm,-,N/A,Snow,Light Snow,0,2012-12-11 11:15:00
6:34 AM,29.3,28.4,96,29.95,5.0,Calm,Calm,-,N/A,Snow,Light Snow,0,2012-12-11 11:34:00
6:55 AM,30.2,28.2,92,29.95,10.0,Calm,Calm,-,N/A,Snow,Light Snow,0,2012-12-11 11:55:00
7:14 AM,32.5,26.1,77,29.95,10.0,West,10.4,-,N/A,Snow,Light Snow,260,2012-12-11 12:14:00
7:34 AM,32.9,24.8,72,29.96,10.0,WSW,6.9,-,N/A,,Overcast,240,2012-12-11 12:34:00
7:55 AM,32.9,23.7,69,29.97,10.0,WSW,11.5,-,N/A,,Overcast,240,2012-12-11 12:55:00
8:14 AM,32.9,23.7,69,29.97,10.0,WSW,8.1,-,N/A,,Overcast,250,2012-12-11 13:14:00
8:35 AM,32.9,22.8,66,29.97,10.0,WSW,10.4,17.3,N/A,,Overcast,250,2012-12-11 13:35:00
9:14 AM,32.5,24.4,72,29.98,10.0,SW,10.4,17.3,N/A,Snow,Light Snow,230,2012-12-11 14:14:00
9:35 AM,32.4,23.7,70,29.99,10.0,WSW,8.1,-,N/A,,Overcast,240,2012-12-11 14:35:00
9:54 AM,32.4,21.4,64,29.99,10.0,WSW,10.4,17.3,N/A,,Overcast,250,2012-12-11 14:54:00
10:15 AM,32.2,20.7,63,29.99,10.0,WSW,8.1,-,N/A,,Overcast,240,2012-12-11 15:15:00
10:34 AM,32.2,20.8,63,30.00,10.0,WSW,9.2,-,N/A,,Overcast,240,2012-12-11 15:34:00
10:54 AM,32.2,21.2,64,30.01,10.0,SW,10.4,16.1,N/A,,Overcast,220,2012-12-11 15:54:00
11:15 AM,32.0,20.7,63,30.01,10.0,SW,11.5,19.6,N/A,,Overcast,220,2012-12-11 16:15:00
11:34 AM,32.5,21.0,63,30.01,10.0,SW,10.4,17.3,N/A,,Overcast,230,2012-12-11 16:34:00
11:54 AM,32.0,20.3,62,30.00,10.0,SW,11.5,-,N/A,,Overcast,230,2012-12-11 16:54:00
12:15 PM,32.0,22.3,67,30.01,10.0,SW,11.5,18.4,N/A,,Overcast,220,2012-12-11 17:15:00
12:34 PM,32.7,20.5,61,30.00,10.0,SW,12.7,21.9,N/A,,Overcast,230,2012-12-11 17:34:00
12:55 PM,33.1,20.7,60,30.00,10.0,SW,15.0,20.7,N/A,,Mostly Cloudy,220,2012-12-11 17:55:00
1:15 PM,32.0,21.9,66,30.00,10.0,SSW,12.7,19.6,N/A,,Mostly Cloudy,200,2012-12-11 18:15:00
1:34 PM,32.9,21.2,62,30.00,10.0,SW,12.7,21.9,N/A,,Mostly Cloudy,220,2012-12-11 18:34:00
1:55 PM,33.1,21.0,61,30.00,10.0,SW,9.2,-,N/A,,Mostly Cloudy,220,2012-12-11 18:55:00
2:14 PM,33.1,18.3,55,30.00,10.0,South,9.2,-,N/A,,Scattered Clouds,190,2012-12-11 19:14:00
2:34 PM,32.7,19.9,59,30.00,10.0,SSW,12.7,17.3,N/A,,Scattered Clouds,200,2012-12-11 19:34:00
2:55 PM,32.5,20.1,60,30.00,10.0,SSW,12.7,19.6,N/A,,Scattered Clouds,200,2012-12-11 19:55:00
3:14 PM,32.5,20.5,61,30.01,10.0,SSW,9.2,-,N/A,,Scattered Clouds,200,2012-12-11 20:14:00
3:35 PM,32.4,19.6,59,30.00,10.0,South,9.2,-,N/A,,Mostly Cloudy,190,2012-12-11 20:35:00
3:54 PM,32.2,20.1,61,30.00,10.0,South,9.2,-,N/A,,Scattered Clouds,180,2012-12-11 20:54:00
4:15 PM,32.0,20.7,63,30.00,10.0,South,9.2,-,N/A,,Mostly Cloudy,190,2012-12-11 21:15:00
4:35 PM,32.0,20.5,63,30.01,10.0,South,9.2,16.1,N/A,,Mostly Cloudy,190,2012-12-11 21:35:00
4:54 PM,31.8,20.3,62,30.01,10.0,South,6.9,-,N/A,,Scattered Clouds,190,2012-12-11 21:54:00
5:15 PM,31.8,20.5,63,30.01,10.0,South,9.2,-,N/A,,Mostly Cloudy,190,2012-12-11 22:15:00
5:34 PM,32.0,20.8,63,30.02,10.0,SSW,9.2,16.1,N/A,,Overcast,200,2012-12-11 22:34:00
5:54 PM,32.0,21.4,65,30.02,10.0,South,8.1,16.1,N/A,,Overcast,190,2012-12-11 22:54:00
6:15 PM,32.0,21.6,65,30.02,10.0,SSW,12.7,17.3,N/A,,Overcast,200,2012-12-11 23:15:00
6:34 PM,32.0,22.1,67,30.03,10.0,SSW,11.5,16.1,N/A,,Overcast,200,2012-12-11 23:34:00
6:55 PM,32.0,22.3,67,30.04,10.0,SSW,10.4,18.4,N/A,,Overcast,200,2012-12-11 23:55:00
7:15 PM,32.0,22.6,68,30.04,10.0,South,12.7,17.3,N/A,,Overcast,190,2012-12-12 00:15:00
7:34 PM,32.0,23.0,69,30.04,10.0,SSW,11.5,19.6,N/A,,Overcast,200,2012-12-12 00:34:00
7:55 PM,32.2,23.5,70,30.05,10.0,SSW,9.2,18.4,N/A,,Overcast,210,2012-12-12 00:55:00
8:14 PM,32.0,23.9,72,30.05,10.0,SW,8.1,-,N/A,,Overcast,220,2012-12-12 01:14:00
8:35 PM,32.0,23.9,72,30.06,10.0,SSW,6.9,-,N/A,,Overcast,210,2012-12-12 01:35:00
8:55 PM,32.0,24.4,74,30.06,10.0,SSW,5.8,-,N/A,,Overcast,210,2012-12-12 01:55:00
9:14 PM,32.0,24.6,74,30.07,10.0,SSW,6.9,-,N/A,,Overcast,210,2012-12-12 02:14:00
9:35 PM,32.0,24.8,75,30.07,10.0,SSW,8.1,-,N/A,,Overcast,200,2012-12-12 02:35:00
9:54 PM,32.0,25.2,76,30.07,10.0,SSW,6.9,-,N/A,,Overcast,200,2012-12-12 02:54:00
10:15 PM,32.0,25.3,76,30.08,10.0,South,10.4,-,N/A,,Overcast,190,2012-12-12 03:15:00
10:35 PM,32.0,25.5,77,30.09,10.0,SSW,8.1,-,N/A,,Overcast,200,2012-12-12 03:35:00
10:54 PM,32.0,25.5,77,30.09,10.0,SSW,8.1,-,N/A,,Overcast,200,2012-12-12 03:54:00
11:15 PM,32.0,25.7,78,30.09,10.0,SSW,8.1,-,N/A,,Overcast,200,2012-12-12 04:15:00
11:34 PM,32.5,25.9,76,30.10,10.0,South,6.9,-,N/A,,Overcast,180,2012-12-12 04:34:00
11:55 PM,32.0,26.2,79,30.11,10.0,SSW,9.2,-,N/A,,Overcast,200,2012-12-12 04:55:00